Orbital Elements at Epoch 2459200.5 (2020-Dec-17.0) TDB
Reference: JPL 22 (heliocentric ecliptic J2000)
Element | Value | Uncertainty (1-sigma) | Units |
e | .1760057890408298 | 4.1439e-08 | |
a | 2.265507969595614 | 8.8726e-09 | au |
q | 1.866765451828649 | 9.4053e-08 | au |
i | 4.542437703739749 | 4.0365e-06 | deg |
node | 68.32310651508803 | 5.5769e-05 | deg |
peri | 262.1751933433695 | 5.701e-05 | deg |
M | 216.0326789863866 | 1.2716e-05 | deg |
tp | 2459698.590479566448 (2022-Apr-29.09047957) | 4.5033e-05 | TDB |
period | 1245.508851463352 3.41 | 7.3168e-06 2.003e-08 | d yr |
n | .2890384918397287 | 1.698e-09 | deg/d |
Q | 2.664250487362577 | 1.0434e-08 | au |
|
| | Orbit Determination Parameters
Additional Information
|